GW1094 Weather Reports


Display with metric or nautical units.
time (UTC)temp
F
wind
direction
speed
MPH
gust
MPH
rain 1hr
in
rain 24hr
in
rain mn
in
humidity
%
barometer
mb
20260901103924 64 138 0.0 0.0 0.00 0.00 0.00 99 4099.4
20260901103424 64 138 0.0 0.0 0.00 0.00 0.00 99 4099.0
20260901102918 64 138 0.0 0.0 0.00 0.00 0.00 99 4099.4
20260901102419 64 138 0.0 0.0 0.00 0.00 0.00 99 4099.0
20260901101913 64 138 0.0 0.0 0.00 0.00 0.00 99 4099.0
20260901101408 64 138 0.0 0.0 0.00 0.00 0.00 99 4099.0
20260901100902 64 138 0.0 0.0 0.00 0.00 0.00 99 4099.0
20260901100357 64 138 0.0 0.0 0.00 0.00 0.00 99 4099.0
20260901095851 64 138 0.0 0.0 0.00 0.00 0.00 99 4099.0
20260901095348 64 138 0.0 0.0 0.00 0.00 0.00 99 4098.7
20260901094842 64 138 0.0 0.0 0.00 0.00 0.00 99 4099.0
20260901094337 64 138 0.0 0.0 0.00 0.00 0.00 99 4099.0
20260901093832 64 138 0.0 0.0 0.00 0.00 0.00 99 4099.0
20260901093331 64 138 0.0 0.0 0.00 0.00 0.00 99 4098.7
20260901092827 64 138 0.0 0.0 0.00 0.00 0.00 99 4099.0
20260901092323 64 138 0.0 0.0 0.00 0.00 0.00 99 4099.0
20260901091819 64 138 0.0 0.0 0.00 0.00 0.00 99 4098.7
20260901091318 64 138 0.0 0.0 0.00 0.00 0.00 99 4098.7
20260901090814 64 138 0.0 0.0 0.00 0.00 0.00 99 4098.7
20260901090308 64 138 0.0 0.0 0.00 0.00 0.00 99 4098.7
20260901085804 64 139 0.0 0.0 0.00 0.00 0.00 99 4099.0
20260901085259 64 138 0.0 0.0 0.00 0.00 0.00 99 4098.7
20260901084756 64 138 0.0 0.0 0.00 0.00 0.00 99 4098.7
20260901084252 64 138 0.0 0.0 0.00 0.00 0.00 99 4098.7
20260901083752 64 138 0.0 0.0 0.00 0.00 0.00 99 4098.7
20260901083252 64 138 0.0 0.0 0.00 0.00 0.00 99 4099.0
20260901082750 65 138 0.0 0.0 0.00 0.00 0.00 99 4098.7
20260901082245 65 138 0.0 0.0 0.00 0.00 0.00 99 4098.7
20260901081741 65 138 0.0 0.0 0.00 0.00 0.00 99 4098.7
20260901081240 65 138 0.0 0.0 0.00 0.00 0.00 99 4098.3
20260901080736 65 137 0.0 0.0 0.00 0.00 0.00 99 4098.3
20260901080234 65 137 0.0 0.0 0.00 0.00 0.00 99 4098.7
20260901075729 65 161 0.0 0.0 0.00 0.00 0.00 99 4098.7
20260901075224 65 159 0.0 0.0 0.00 0.00 0.00 99 4098.3
20260901074718 65 159 0.0 0.0 0.00 0.00 0.00 99 4098.7
20260901074214 65 159 0.0 0.0 0.00 0.00 0.00 99 4098.3
20260901073710 65 159 0.0 0.0 0.00 0.00 0.00 99 4098.7
20260901073205 65 159 0.0 0.0 0.00 0.00 0.00 99 4098.3
20260901072700 65 159 0.0 0.0 0.00 0.00 0.00 99 4098.3
20260901072155 65 159 0.0 0.0 0.00 0.00 0.00 99 4098.3
20260901071654 65 160 0.0 0.0 0.00 0.00 0.00 99 4098.3
20260901071149 65 160 0.0 0.0 0.00 0.00 0.00 99 4098.3
20260901070643 65 160 0.0 0.0 0.00 0.00 0.00 99 4098.3
20260901070138 64 159 0.0 0.0 0.00 0.00 0.00 99 4098.3
20260901065637 64 159 0.0 0.0 0.00 0.00 0.00 99 4098.0
20260901065132 64 159 0.0 0.0 0.00 0.00 0.00 99 4098.0
20260901064629 64 160 0.0 0.0 0.00 0.00 0.00 99 4098.0
20260901064125 64 160 0.0 0.0 0.00 0.00 0.00 99 4098.0
20260901063622 64 160 0.0 0.0 0.00 0.00 0.00 99 4098.0
20260901063118 64 160 0.0 0.0 0.00 0.00 0.00 99 4098.0
20260901062614 64 160 0.0 0.0 0.00 0.00 0.00 99 4098.0
20260901062110 64 160 0.0 0.0 0.00 0.00 0.00 99 4098.0
20260901061606 64 160 0.0 0.0 0.00 0.00 0.00 99 4098.3
20260901061105 64 160 0.0 0.0 0.00 0.00 0.00 99 4098.0
20260901060600 64 160 0.0 0.0 0.00 0.00 0.00 99 4098.0
20260901060055 64 160 0.0 0.0 0.00 0.00 0.00 99 4097.7
20260901055550 64 160 0.0 0.0 0.00 0.00 0.00 99 4097.7
20260901055047 64 160 0.0 0.0 0.00 0.00 0.00 99 4097.7
20260901054544 64 160 0.0 0.0 0.00 0.00 0.00 99 4097.7
20260901054040 64 160 0.0 0.0 0.00 0.00 0.00 99 4098.0
20260901053536 64 173 0.0 0.0 0.00 0.00 0.00 99 4098.0
20260901053031 64 173 0.0 0.0 0.00 0.00 0.00 99 4098.3
20260901052526 64 173 0.0 0.0 0.00 0.00 0.00 99 4097.7
20260901052026 64 173 0.0 0.0 0.00 0.00 0.00 99 4098.3
20260901051521 64 175 0.0 0.0 0.00 0.00 0.00 99 4098.0
20260901051019 63 179 0.0 0.0 0.00 0.00 0.00 99 4098.3
20260901050515 64 181 0.0 0.0 0.00 0.00 0.00 99 4098.0
20260901050010 64 183 0.0 0.0 0.00 0.00 0.00 99 4098.0
20260901045505 64 201 1.0 2.0 0.00 0.00 0.00 99 4098.0
20260901045000 64 170 0.0 0.0 0.00 0.00 0.00 99 4098.0
20260901044456 63 170 0.0 0.0 0.00 0.00 0.00 99 4098.3
20260901043952 63 170 0.0 0.0 0.00 0.00 0.00 99 4098.3
20260901043447 63 170 0.0 0.0 0.00 0.00 0.00 99 4098.0
20260901042942 63 170 0.0 0.0 0.00 0.00 0.00 99 4098.0
20260901042441 63 170 0.0 0.0 0.00 0.00 0.00 99 4098.0
20260901041937 63 170 0.0 0.0 0.00 0.00 0.00 99 4098.3
20260901041432 63 170 0.0 0.0 0.00 0.00 0.00 99 4098.3
20260901040931 63 170 0.0 0.0 0.00 0.00 0.00 99 4098.3
20260901040426 63 170 0.0 0.0 0.00 0.00 0.00 99 4098.0
20260901035920 63 170 0.0 0.0 0.00 0.02 0.02 99 4098.3
20260901035418 63 170 0.0 0.0 0.00 0.02 0.02 99 4098.3
20260901034917 63 170 0.0 0.0 0.00 0.02 0.02 99 4098.3
20260901034412 64 169 0.0 0.0 0.00 0.02 0.02 99 4098.3
20260901033907 64 169 0.0 0.0 0.00 0.02 0.02 99 4098.3
20260901033406 64 169 0.0 0.0 0.00 0.02 0.02 99 4098.3
20260901032905 64 169 0.0 0.0 0.00 0.02 0.02 99 4098.7
20260901032404 64 169 0.0 0.0 0.00 0.02 0.02 99 4098.3
20260901031900 64 169 0.0 0.0 0.00 0.02 0.02 99 4098.3
20260901031355 64 170 0.0 0.0 0.00 0.02 0.02 99 4098.3
20260901030854 64 170 0.0 0.0 0.00 0.02 0.02 99 4098.0
20260901030351 64 169 0.0 0.0 0.00 0.02 0.02 99 4098.0
20260901025849 64 169 0.0 0.0 0.00 0.02 0.02 99 4097.7
20260901025344 64 168 0.0 0.0 0.00 0.02 0.02 99 4098.0
20260901024839 64 176 0.0 0.0 0.00 0.02 0.02 99 4097.7
20260901024338 64 194 0.0 0.0 0.00 0.02 0.02 99 4097.7
20260901023836 65 183 0.0 0.0 0.00 0.02 0.02 99 4098.0
20260901023332 65 170 0.0 0.0 0.00 0.02 0.02 99 4098.0
20260901022827 65 170 0.0 0.0 0.00 0.02 0.02 99 4098.0
20260901022323 65 170 0.0 0.0 0.00 0.02 0.02 99 4098.3
20260901021818 65 170 0.0 0.0 0.00 0.02 0.02 99 4098.3
20260901021314 65 169 0.0 0.0 0.00 0.02 0.02 99 4098.3
20260901020808 65 169 0.0 0.0 0.00 0.02 0.02 99 4098.0
20260901020303 65 169 0.0 0.0 0.00 0.02 0.02 99 4098.0
20260901015758 65 169 0.0 0.0 0.00 0.02 0.02 99 4098.0
20260901015254 66 168 0.0 0.0 0.00 0.02 0.02 99 4098.3
20260901014753 66 166 0.0 1.0 0.00 0.02 0.02 99 4098.0
20260901014249 66 175 0.0 0.0 0.00 0.02 0.02 99 4098.0
20260901013745 66 177 0.0 0.0 0.00 0.02 0.02 99 4098.0
20260901013240 66 178 0.0 0.0 0.00 0.02 0.02 99 4098.3
20260901012735 66 179 2.0 2.0 0.00 0.02 0.02 99 4098.3
20260901012235 66 207 1.0 1.0 0.00 0.02 0.02 99 4098.3
20260901011731 66 178 0.0 0.0 0.00 0.02 0.02 99 4098.0
20260901011226 66 178 0.0 0.0 0.00 0.02 0.02 99 4098.3
20260901010720 66 238 3.0 3.0 0.00 0.02 0.02 99 4098.3
20260901010215 66 161 0.0 1.0 0.00 0.02 0.02 99 4098.3
20260901005714 66 156 0.0 0.0 0.00 0.02 0.02 99 4098.0
20260901005209 65 152 0.0 0.0 0.00 0.02 0.02 99 4098.0
20260901004708 65 137 0.0 0.0 0.00 0.02 0.02 99 4098.0
20260901004158 65 154 0.0 0.0 0.00 0.02 0.02 99 4097.7
20260901003657 65 150 0.0 0.0 0.00 0.02 0.02 99 4097.7
20260901003152 66 151 0.0 0.0 0.00 0.02 0.02 99 4097.7
20260901002651 66 164 1.0 1.0 0.00 0.02 0.02 99 4097.7
20260901002146 66 161 0.0 0.0 0.00 0.02 0.02 99 4097.7
20260901001642 66 159 0.0 0.0 0.00 0.02 0.02 99 4097.7
20260901001137 66 169 0.0 0.0 0.00 0.02 0.02 99 4097.7
20260901000632 66 191 0.0 0.0 0.00 0.02 0.02 99 4097.7
20260901000127 66 216 2.0 2.0 0.00 0.02 0.02 99 4097.7
20260831235621 66 247 1.0 1.0 0.00 0.02 0.02 99 4097.7
20260831235116 66 173 1.0 2.0 0.00 0.02 0.02 99 4097.7
20260831234610 66 146 1.0 3.0 0.00 0.02 0.02 99 4097.3
20260831234106 66 347 1.0 1.0 0.00 0.02 0.02 99 4097.7
20260831233601 66 28 1.0 2.0 0.00 0.02 0.02 99 4097.3
20260831233056 66 54 0.0 0.0 0.00 0.02 0.02 99 4097.3
20260831232552 66 5 3.0 5.0 0.00 0.02 0.02 99 4097.3
20260831232047 67 57 0.0 0.0 0.00 0.02 0.02 99 4097.7
20260831231544 67 77 0.0 0.0 0.00 0.02 0.02 99 4097.3
20260831231039 67 42 2.0 2.0 0.00 0.02 0.02 99 4097.3
20260831230534 68 7 2.0 3.0 0.00 0.02 0.02 99 4097.3
20260831230034 68 79 0.0 1.0 0.00 0.02 0.02 99 4097.3
20260831225529 68 323 1.0 2.0 0.00 0.02 0.02 99 4097.3
20260831225024 69 50 3.0 3.0 0.00 0.02 0.02 99 4097.3
20260831224519 70 60 0.0 1.0 0.00 0.02 0.02 99 4097.3
20260831224014 70 116 1.0 1.0 0.00 0.02 0.02 99 4097.3
20260831223509 71 113 0.0 1.0 0.00 0.02 0.02 99 4097.3
20260831223006 71 75 0.0 1.0 0.00 0.02 0.02 99 4097.3
20260831222502 71 53 0.0 0.0 0.00 0.02 0.02 99 4097.3
20260831222001 71 72 1.0 2.0 0.00 0.02 0.02 99 4097.7
20260831221457 71 24 1.0 1.0 0.00 0.02 0.02 99 4097.7
20260831220952 72 74 0.0 0.0 0.00 0.02 0.02 99 4097.7
20260831220448 72 93 0.0 0.0 0.00 0.02 0.02 99 4097.3
20260831215943 72 147 0.0 1.0 0.00 0.02 0.02 99 4097.7
20260831215438 72 104 1.0 1.0 0.00 0.02 0.02 99 4097.7
20260831214934 72 144 1.0 1.0 0.00 0.02 0.02 99 4097.7
20260831214432 72 115 0.0 0.0 0.00 0.02 0.02 99 4097.7
20260831213927 72 149 1.0 1.0 0.00 0.02 0.02 99 4097.7
20260831213424 72 123 0.0 0.0 0.00 0.02 0.02 99 4097.7
20260831212924 72 150 0.0 0.0 0.00 0.02 0.02 99 4097.7
20260831212420 72 102 1.0 1.0 0.00 0.02 0.02 99 4097.7
20260831211919 73 80 2.0 2.0 0.00 0.02 0.02 99 4097.7
20260831211414 74 159 2.0 3.0 0.00 0.02 0.02 98 4097.3
20260831210908 74 220 1.0 2.0 0.00 0.02 0.02 97 4097.3
20260831210404 73 150 1.0 1.0 0.00 0.02 0.02 98 4097.0
20260831205859 73 148 2.0 2.0 0.00 0.02 0.02 98 4097.3
20260831205355 73 210 2.0 3.0 0.00 0.02 0.02 98 4097.3
20260831204849 73 129 1.0 1.0 0.00 0.02 0.02 98 4097.7
20260831204348 72 109 0.0 1.0 0.00 0.02 0.02 99 4097.7
20260831203848 73 127 1.0 1.0 0.00 0.02 0.02 99 4097.7
20260831203343 74 143 2.0 2.0 0.00 0.02 0.02 97 4098.0
20260831202841 75 122 0.0 0.0 0.00 0.02 0.02 97 4097.7
20260831202336 76 121 2.0 2.0 0.00 0.02 0.02 95 4097.7
20260831201836 76 140 1.0 1.0 0.00 0.02 0.02 94 4097.7
20260831201335 76 161 1.0 1.0 0.00 0.02 0.02 96 4097.7
20260831200831 76 160 1.0 2.0 0.00 0.02 0.02 96 4098.0
20260831200326 77 7 0.0 0.0 0.00 0.02 0.02 95 4098.0
20260831195821 77 258 0.0 0.0 0.00 0.02 0.02 95 4098.0
20260831195317 78 57 0.0 1.0 0.00 0.02 0.02 93 4097.7
20260831194812 78 84 1.0 1.0 0.00 0.02 0.02 93 4098.0
20260831194307 77 189 1.0 2.0 0.00 0.02 0.02 94 4098.0
20260831193806 78 0 1.0 2.0 0.00 0.02 0.02 93 4098.0
20260831193301 77 65 0.0 1.0 0.00 0.02 0.02 95 4098.3
20260831192756 78 121 1.0 1.0 0.00 0.02 0.02 95 4098.3
20260831192251 77 202 1.0 1.0 0.00 0.02 0.02 94 4098.0
20260831191747 77 153 1.0 1.0 0.00 0.02 0.02 95 4098.3
20260831191243 77 162 2.0 2.0 0.00 0.02 0.02 96 4098.3
20260831190738 77 164 1.0 1.0 0.00 0.02 0.02 97 4098.3
20260831190233 77 152 0.0 0.0 0.00 0.02 0.02 96 4098.7
20260831185727 77 104 1.0 1.0 0.00 0.02 0.02 96 4098.3
20260831185223 78 127 2.0 2.0 0.00 0.02 0.02 94 4098.7
20260831184722 78 183 0.0 0.0 0.00 0.02 0.02 95 4098.7
20260831184218 79 94 2.0 2.0 0.00 0.02 0.02 91 4098.3
20260831183717 79 170 2.0 2.0 0.00 0.02 0.02 92 4098.7
20260831183212 79 137 2.0 3.0 0.00 0.02 0.02 94 4098.3
20260831182711 78 159 2.0 2.0 0.00 0.02 0.02 94 4098.3
20260831182206 79 140 0.0 0.0 0.00 0.02 0.02 96 4098.7
20260831181700 78 5 0.0 1.0 0.00 0.02 0.02 95 4098.3
20260831181155 78 142 1.0 1.0 0.00 0.02 0.02 95 4098.3
20260831180651 79 120 0.0 1.0 0.00 0.02 0.02 93 4098.7
20260831180146 78 179 1.0 1.0 0.00 0.02 0.02 95 4098.7
20260831175645 79 143 2.0 3.0 0.00 0.02 0.02 94 4098.7
20260831175142 79 156 0.0 0.0 0.00 0.02 0.02 95 4098.7
20260831174637 78 152 1.0 1.0 0.00 0.02 0.02 95 4098.7
20260831174132 77 134 0.0 0.0 0.00 0.02 0.02 96 4099.0
20260831173630 78 131 1.0 1.0 0.00 0.02 0.02 97 4098.7
20260831173126 78 142 2.0 2.0 0.00 0.02 0.02 97 4099.0
20260831172621 78 142 1.0 2.0 0.00 0.02 0.02 94 4099.0
20260831172120 78 88 4.0 6.0 0.00 0.02 0.02 97 4099.0
20260831171616 77 158 0.0 0.0 0.00 0.02 0.02 99 4098.7
20260831171113 77 105 1.0 1.0 0.00 0.02 0.02 99 4099.4
20260831170609 76 121 1.0 2.0 0.00 0.02 0.02 99 4099.0
20260831170106 75 185 1.0 1.0 0.00 0.02 0.02 99 4099.0
20260831165601 74 112 2.0 3.0 0.00 0.02 0.02 99 4099.4
20260831165058 73 141 2.0 2.0 0.00 0.02 0.02 99 4099.4
20260831164553 73 100 1.0 2.0 0.00 0.02 0.02 99 4099.4
20260831164049 73 139 0.0 0.0 0.00 0.02 0.02 99 4099.7
20260831163543 72 146 0.0 0.0 0.00 0.02 0.02 99 4099.4
20260831163039 72 156 0.0 1.0 0.00 0.02 0.02 99 4099.4
20260831162538 72 141 0.0 1.0 0.00 0.02 0.02 99 4099.4
20260831162036 71 160 0.0 1.0 0.00 0.02 0.02 99 4099.7
20260831161533 70 147 0.0 1.0 0.00 0.02 0.02 99 4099.7
20260831161029 70 149 1.0 1.0 0.00 0.02 0.02 99 4099.4
20260831160528 70 81 1.0 1.0 0.00 0.02 0.02 99 4100.0
20260831160024 70 129 0.0 1.0 0.00 0.02 0.02 99 4099.7
20260831155518 70 120 1.0 2.0 0.00 0.02 0.02 99 4099.7
20260831155013 69 116 0.0 1.0 0.00 0.02 0.02 99 4099.7
20260831154509 70 146 1.0 2.0 0.00 0.02 0.02 99 4100.0
20260831154008 70 140 0.0 1.0 0.00 0.02 0.02 99 4100.0
20260831153503 69 132 0.0 0.0 0.00 0.02 0.02 99 4100.0
20260831153000 69 135 0.0 0.0 0.00 0.02 0.02 99 4100.0
20260831152455 69 122 0.0 1.0 0.00 0.02 0.02 99 4100.0
20260831151950 68 126 0.0 0.0 0.00 0.02 0.02 99 4100.0
20260831151449 68 160 2.0 3.0 0.00 0.02 0.02 99 4100.4
20260831150944 68 114 1.0 2.0 0.00 0.02 0.02 99 4100.0
20260831150440 68 111 1.0 1.0 0.00 0.02 0.02 99 4100.0
20260831145939 68 172 2.0 2.0 0.00 0.02 0.02 99 4100.0
20260831145436 68 113 0.0 1.0 0.00 0.02 0.02 99 4100.0
20260831144931 68 121 2.0 2.0 0.00 0.02 0.02 99 4100.4
20260831144426 68 152 1.0 1.0 0.00 0.02 0.02 99 4100.4
20260831143922 67 148 0.0 0.0 0.00 0.02 0.02 99 4100.4
20260831143417 67 155 0.0 1.0 0.00 0.02 0.02 99 4100.4
20260831142912 67 113 0.0 1.0 0.00 0.02 0.02 99 4100.4
20260831142408 67 149 0.0 0.0 0.00 0.02 0.02 99 4100.4
20260831141902 67 126 0.0 1.0 0.00 0.02 0.02 99 4100.4
20260831141356 66 140 0.0 0.0 0.00 0.02 0.02 99 4100.4
20260831140851 66 158 0.0 0.0 0.00 0.02 0.02 99 4100.4
20260831140346 66 152 0.0 0.0 0.00 0.02 0.02 99 4100.4
20260831135844 66 124 0.0 0.0 0.02 0.02 0.02 99 4100.4
20260831135339 66 141 0.0 0.0 0.02 0.02 0.02 99 4100.4
20260831134834 66 132 0.0 0.0 0.02 0.02 0.02 99 4100.4
20260831134331 66 95 0.0 0.0 0.02 0.02 0.02 99 4100.4
20260831133830 66 136 0.0 0.0 0.01 0.01 0.01 99 4100.4
20260831133324 66 128 1.0 1.0 0.01 0.01 0.01 99 4100.4
20260831132819 66 138 0.0 0.0 0.00 0.00 0.00 99 4100.7
20260831132314 66 152 0.0 0.0 0.00 0.00 0.00 99 4100.7
20260831131809 65 154 1.0 1.0 0.00 0.00 0.00 99 4100.7
20260831131305 65 142 0.0 0.0 0.00 0.00 0.00 99 4100.4
20260831130759 65 138 0.0 0.0 0.00 0.00 0.00 99 4100.7
20260831130254 65 140 0.0 1.0 0.00 0.00 0.00 99 4100.7
20260831125753 65 146 0.0 0.0 0.00 0.00 0.00 99 4100.4
20260831125249 65 117 0.0 1.0 0.00 0.00 0.00 99 4100.0
20260831124744 65 115 0.0 0.0 0.00 0.00 0.00 99 4100.4
20260831124241 65 124 0.0 0.0 0.00 0.00 0.00 99 4100.4
20260831123740 65 139 0.0 0.0 0.00 0.00 0.00 99 4100.4
20260831123239 65 132 0.0 1.0 0.00 0.00 0.00 99 4100.4
20260831122734 65 150 0.0 0.0 0.00 0.00 0.00 99 4100.4
20260831122230 65 129 0.0 0.0 0.00 0.00 0.00 99 4100.4
20260831121728 65 119 1.0 1.0 0.00 0.00 0.00 99 4100.4
20260831121225 65 138 0.0 0.0 0.00 0.00 0.00 99 4100.0
20260831120720 65 104 0.0 0.0 0.00 0.00 0.00 99 4100.0
20260831120215 65 123 0.0 1.0 0.00 0.00 0.00 99 4100.0
20260831115711 65 125 0.0 0.0 0.00 0.00 0.00 99 4099.7
20260831115207 65 130 0.0 1.0 0.00 0.00 0.00 99 4099.7
20260831114706 65 133 1.0 1.0 0.00 0.00 0.00 99 4099.4
20260831114205 65 106 0.0 1.0 0.00 0.00 0.00 99 4099.4
20260831113701 65 160 0.0 1.0 0.00 0.00 0.00 99 4099.4
20260831113155 64 130 0.0 0.0 0.00 0.00 0.00 99 4099.4
20260831112654 64 238 1.0 2.0 0.00 0.00 0.00 99 4099.0
20260831112150 64 137 0.0 0.0 0.00 0.00 0.00 99 4099.0
20260831111646 64 144 1.0 1.0 0.00 0.00 0.00 99 4099.4
20260831111142 64 115 0.0 0.0 0.00 0.00 0.00 99 4099.4
20260831110637 64 158 0.0 0.0 0.00 0.00 0.00 99 4099.0
20260831110132 64 123 1.0 2.0 0.00 0.00 0.00 99 4099.4
20260831105631 64 131 0.0 0.0 0.00 0.00 0.00 99 4099.7
20260831105126 64 125 0.0 0.0 0.00 0.00 0.00 99 4099.7
20260831104622 64 129 0.0 0.0 0.00 0.00 0.00 99 4099.7
20260831104118 64 136 0.0 0.0 0.00 0.00 0.00 99 4100.0